AZU2202 SBRJ-SBBR

Flight info

Callsign AZU2202
Flight time 1h 22m
Altitude 36000
Route MUDKA UM409 ISIPI
Aircraft E195/M-SDE3GILORVW/S

Departure

Time 2026-05-06 21:25
Airport Santos Dumont Airport (SBRJ)

Arrival

Time 2026-05-06 22:47
Airport Presidente Juscelino Kubitschek International Airport (SBBR)
Time Latitude Longitude Altitude Speed Heading
2026-05-06 21:06 -22.91199 -43.16587 21 ft 0 kts 266°
2026-05-06 21:10 -22.91199 -43.16575 21 ft 2 kts 265°
2026-05-06 21:11 -22.91198 -43.16560 21 ft 2 kts 266°
2026-05-06 21:11 -22.91197 -43.16547 21 ft 2 kts 266°
2026-05-06 21:11 -22.91197 -43.16533 21 ft 2 kts 294°
2026-05-06 21:11 -22.91205 -43.16522 21 ft 2 kts 324°
2026-05-06 21:12 -22.91216 -43.16516 21 ft 0 kts 352°
2026-05-06 21:12 -22.91222 -43.16516 20 ft 1 kts 357°
2026-05-06 21:12 -22.91224 -43.16516 20 ft 0 kts 356°
2026-05-06 21:15 -22.91222 -43.16516 20 ft 0 kts 356°
2026-05-06 21:15 -22.91215 -43.16517 20 ft 1 kts 355°
2026-05-06 21:15 -22.91201 -43.16518 20 ft 2 kts 355°
2026-05-06 21:16 -22.91181 -43.16520 20 ft 3 kts 355°
2026-05-06 21:16 -22.91156 -43.16523 20 ft 4 kts 351°
2026-05-06 21:16 -22.91125 -43.16528 21 ft 4 kts 351°
2026-05-06 21:16 -22.91083 -43.16538 20 ft 7 kts 347°
2026-05-06 21:17 -22.91022 -43.16548 20 ft 9 kts 353°
2026-05-06 21:17 -22.90953 -43.16553 20 ft 10 kts 358°
2026-05-06 21:17 -22.90879 -43.16557 21 ft 11 kts 357°
2026-05-06 21:17 -22.90812 -43.16556 20 ft 8 kts 11°
2026-05-06 21:18 -22.90754 -43.16552 20 ft 8 kts 359°
2026-05-06 21:18 -22.90697 -43.16556 20 ft 9 kts 355°
2026-05-06 21:18 -22.90662 -43.16558 20 ft 9 kts 357°
2026-05-06 21:18 -22.90592 -43.16561 21 ft 10 kts 357°
2026-05-06 21:19 -22.90539 -43.16564 21 ft 5 kts 356°
2026-05-06 21:19 -22.90507 -43.16559 21 ft 4 kts 30°
2026-05-06 21:19 -22.90490 -43.16521 20 ft 4 kts 83°
2026-05-06 21:19 -22.90487 -43.16486 19 ft 5 kts 85°
2026-05-06 21:20 -22.90484 -43.16463 19 ft 0 kts 84°
2026-05-06 21:22 -22.90484 -43.16462 19 ft 0 kts 84°
2026-05-06 21:22 -22.90483 -43.16445 19 ft 4 kts 88°
2026-05-06 21:22 -22.90482 -43.16403 18 ft 6 kts 86°
2026-05-06 21:22 -22.90476 -43.16356 18 ft 5 kts 84°
2026-05-06 21:23 -22.90479 -43.16342 18 ft 1 kts 123°
2026-05-06 21:23 -22.90481 -43.16340 19 ft 1 kts 131°
2026-05-06 21:23 -22.90501 -43.16329 19 ft 5 kts 167°
2026-05-06 21:23 -22.90509 -43.16327 20 ft 0 kts 174°
2026-05-06 21:24 -22.90742 -43.16310 21 ft 65 kts 175°
2026-05-06 21:24 -22.91410 -43.16266 21 ft 122 kts 178°
2026-05-06 21:24 -22.92372 -43.16199 193 ft 143 kts 174°
2026-05-06 21:24 -22.93378 -43.16045 553 ft 153 kts 158°
2026-05-06 21:25 -22.94203 -43.15291 901 ft 161 kts 124°
2026-05-06 21:25 -22.94901 -43.14315 1293 ft 173 kts 114°
2026-05-06 21:25 -22.95597 -43.13137 1612 ft 200 kts 132°
2026-05-06 21:25 -22.96663 -43.12058 2126 ft 217 kts 135°
2026-05-06 21:26 -22.97820 -43.10927 2763 ft 228 kts 136°
2026-05-06 21:26 -22.99020 -43.09777 3487 ft 236 kts 136°
2026-05-06 21:26 -23.00636 -43.08242 4753 ft 229 kts 137°
2026-05-06 21:26 -23.01428 -43.07495 5345 ft 227 kts 137°
2026-05-06 21:27 -23.02432 -43.06240 6107 ft 223 kts 108°
2026-05-06 21:27 -23.02510 -43.04626 6769 ft 222 kts 71°
2026-05-06 21:27 -23.01963 -43.03039 7444 ft 225 kts 68°
2026-05-06 21:27 -23.01400 -43.01503 8047 ft 221 kts 68°
2026-05-06 21:28 -23.00820 -42.99947 8616 ft 228 kts 68°
2026-05-06 21:28 -23.00217 -42.98342 9222 ft 233 kts 67°
2026-05-06 21:28 -22.99602 -42.96715 9913 ft 234 kts 67°
2026-05-06 21:28 -22.98984 -42.95082 10559 ft 236 kts 67°
2026-05-06 21:29 -22.98354 -42.93421 11129 ft 240 kts 68°
2026-05-06 21:29 -22.97719 -42.91746 11769 ft 240 kts 68°
2026-05-06 21:29 -22.97151 -42.90249 13009 ft 206 kts 67°
2026-05-06 21:29 -22.96316 -42.88880 13010 ft 233 kts 34°
2026-05-06 21:30 -22.94843 -42.87956 13183 ft 254 kts 29°
2026-05-06 21:30 -22.93240 -42.87003 13305 ft 277 kts 29°
2026-05-06 21:30 -22.91449 -42.85932 13381 ft 302 kts 29°
2026-05-06 21:30 -22.89538 -42.84787 13550 ft 321 kts 30°
2026-05-06 21:31 -22.87462 -42.83695 13861 ft 336 kts 15°
2026-05-06 21:31 -22.85119 -42.83573 14332 ft 345 kts 353°
2026-05-06 21:31 -22.82713 -42.83962 14965 ft 348 kts 352°
2026-05-06 21:31 -22.80338 -42.84353 15614 ft 349 kts 352°
2026-05-06 21:32 -22.77927 -42.84748 16210 ft 352 kts 352°
2026-05-06 21:32 -22.72996 -42.85514 17293 ft 360 kts 352°
2026-05-06 21:32 -22.70514 -42.85910 17823 ft 365 kts 352°
2026-05-06 21:33 -22.67988 -42.86330 18374 ft 368 kts 351°
2026-05-06 21:33 -22.65447 -42.86753 18967 ft 370 kts 351°
2026-05-06 21:33 -22.62876 -42.87180 19557 ft 373 kts 351°
2026-05-06 21:33 -22.60312 -42.87606 20118 ft 375 kts 351°
2026-05-06 21:34 -22.57718 -42.88037 20684 ft 377 kts 350°
2026-05-06 21:34 -22.55115 -42.88469 21242 ft 380 kts 350°
2026-05-06 21:34 -22.52478 -42.88907 21800 ft 382 kts 350°
2026-05-06 21:34 -22.49866 -42.89341 22365 ft 383 kts 350°
2026-05-06 21:35 -22.47216 -42.89780 22938 ft 384 kts 349°
2026-05-06 21:35 -22.44579 -42.90217 23504 ft 384 kts 349°
2026-05-06 21:35 -22.41919 -42.90658 24077 ft 385 kts 350°
2026-05-06 21:35 -22.39442 -42.91069 24610 ft 384 kts 350°
2026-05-06 21:36 -22.36719 -42.91519 25192 ft 384 kts 349°
2026-05-06 21:36 -22.34090 -42.91955 25759 ft 383 kts 350°
2026-05-06 21:36 -22.31465 -42.92389 26323 ft 382 kts 349°
2026-05-06 21:36 -22.28790 -42.92831 26896 ft 381 kts 349°
2026-05-06 21:37 -22.26175 -42.93264 27465 ft 379 kts 349°
2026-05-06 21:37 -22.23580 -42.93692 28021 ft 376 kts 349°
2026-05-06 21:37 -22.20995 -42.94120 28581 ft 374 kts 349°
2026-05-06 21:37 -22.18440 -42.94661 29131 ft 368 kts 340°
2026-05-06 21:38 -22.16089 -42.95694 29678 ft 361 kts 327°
2026-05-06 21:38 -22.14019 -42.97158 30203 ft 352 kts 315°
2026-05-06 21:38 -22.10491 -43.00957 30322 ft 371 kts 310°
2026-05-06 21:39 -22.08666 -43.02992 30369 ft 382 kts 310°
2026-05-06 21:39 -22.06805 -43.05064 30411 ft 394 kts 311°
2026-05-06 21:39 -22.04858 -43.07230 30438 ft 405 kts 310°
2026-05-06 21:39 -22.02867 -43.09443 30467 ft 416 kts 311°
2026-05-06 21:40 -22.00823 -43.11714 30492 ft 428 kts 310°
2026-05-06 21:40 -21.98731 -43.14038 30540 ft 438 kts 310°
2026-05-06 21:40 -21.96589 -43.16415 30680 ft 445 kts 310°
2026-05-06 21:40 -21.94429 -43.18811 30969 ft 449 kts 310°
2026-05-06 21:41 -21.92240 -43.21239 31327 ft 450 kts 310°
2026-05-06 21:41 -21.90048 -43.23669 31717 ft 451 kts 310°
2026-05-06 21:41 -21.87858 -43.26096 31998 ft 454 kts 310°
2026-05-06 21:41 -21.85662 -43.28529 32285 ft 456 kts 310°
2026-05-06 21:42 -21.83431 -43.30998 32552 ft 459 kts 309°
2026-05-06 21:42 -21.81205 -43.33461 32798 ft 462 kts 309°
2026-05-06 21:42 -21.78964 -43.35940 33057 ft 464 kts 309°
2026-05-06 21:42 -21.76715 -43.38424 33343 ft 466 kts 309°
2026-05-06 21:43 -21.74299 -43.40816 33582 ft 472 kts 313°
2026-05-06 21:43 -21.71857 -43.43193 33794 ft 476 kts 312°
2026-05-06 21:43 -21.69412 -43.45584 34071 ft 478 kts 311°
2026-05-06 21:43 -21.66972 -43.47974 34357 ft 480 kts 311°
2026-05-06 21:44 -21.64468 -43.50426 34595 ft 483 kts 311°
2026-05-06 21:44 -21.61998 -43.52844 34820 ft 485 kts 311°
2026-05-06 21:44 -21.59504 -43.55285 34998 ft 489 kts 311°
2026-05-06 21:44 -21.56848 -43.57646 35245 ft 496 kts 319°
2026-05-06 21:45 -21.53903 -43.59602 35464 ft 503 kts 325°
2026-05-06 21:45 -21.50931 -43.61423 35715 ft 504 kts 324°
2026-05-06 21:45 -21.47901 -43.63296 35869 ft 507 kts 324°
2026-05-06 21:45 -21.44836 -43.65193 36026 ft 510 kts 324°
2026-05-06 21:46 -21.41731 -43.67115 36244 ft 512 kts 324°
2026-05-06 21:46 -21.38623 -43.69040 36260 ft 514 kts 324°
2026-05-06 21:46 -21.32378 -43.72901 36305 ft 516 kts 324°
2026-05-06 21:47 -21.26153 -43.76752 36321 ft 513 kts 323°
2026-05-06 21:47 -21.20038 -43.80754 36300 ft 514 kts 323°
2026-05-06 21:48 -21.13952 -43.84719 36287 ft 511 kts 323°
2026-05-06 21:48 -21.07828 -43.88708 36275 ft 517 kts 323°
2026-05-06 21:49 -21.01676 -43.92708 36258 ft 513 kts 323°
2026-05-06 21:49 -20.95579 -43.96670 36258 ft 512 kts 323°
2026-05-06 21:50 -20.89467 -44.00639 36256 ft 515 kts 323°
2026-05-06 21:50 -20.83307 -44.04635 36241 ft 514 kts 323°
2026-05-06 21:51 -20.77175 -44.08607 36244 ft 516 kts 322°
2026-05-06 21:51 -20.71068 -44.12598 36248 ft 516 kts 322°
2026-05-06 21:52 -20.64951 -44.16587 36249 ft 516 kts 322°
2026-05-06 21:52 -20.58787 -44.20562 36250 ft 516 kts 323°
2026-05-06 21:53 -20.52630 -44.24518 36249 ft 516 kts 323°
2026-05-06 21:53 -20.46452 -44.28486 36248 ft 516 kts 322°
2026-05-06 21:54 -20.40310 -44.32433 36247 ft 515 kts 322°
2026-05-06 21:54 -20.34164 -44.36388 36249 ft 516 kts 323°
2026-05-06 21:55 -20.28026 -44.40333 36249 ft 515 kts 323°
2026-05-06 21:55 -20.21849 -44.44299 36255 ft 518 kts 323°
2026-05-06 21:56 -20.15701 -44.48243 36253 ft 515 kts 322°
2026-05-06 21:56 -20.10355 -44.51670 36255 ft 516 kts 322°
2026-05-06 21:57 -20.04192 -44.55618 36250 ft 515 kts 322°
2026-05-06 21:57 -19.98042 -44.59555 36248 ft 517 kts 322°
2026-05-06 21:58 -19.91899 -44.63483 36243 ft 517 kts 322°
2026-05-06 21:58 -19.86501 -44.66931 36227 ft 517 kts 323°
2026-05-06 21:59 -19.80398 -44.70827 36229 ft 517 kts 323°
2026-05-06 21:59 -19.74211 -44.74772 36225 ft 515 kts 323°
2026-05-06 22:00 -19.68027 -44.78713 36225 ft 517 kts 323°
2026-05-06 22:00 -19.61886 -44.82622 36217 ft 515 kts 323°
2026-05-06 22:01 -19.55737 -44.86533 36213 ft 516 kts 323°
2026-05-06 22:01 -19.49598 -44.90434 36202 ft 514 kts 323°
2026-05-06 22:02 -19.43440 -44.94343 36192 ft 515 kts 323°
2026-05-06 22:02 -19.37261 -44.98262 36186 ft 516 kts 323°
2026-05-06 22:03 -19.31112 -45.02159 36182 ft 515 kts 323°
2026-05-06 22:03 -19.24963 -45.06052 36183 ft 515 kts 323°
2026-05-06 22:04 -19.18800 -45.09951 36177 ft 513 kts 323°
2026-05-06 22:04 -19.12681 -45.13819 36177 ft 515 kts 323°
2026-05-06 22:05 -19.06551 -45.17690 36177 ft 513 kts 323°
2026-05-06 22:05 -19.00376 -45.21585 36176 ft 514 kts 323°
2026-05-06 22:06 -18.94268 -45.25436 36174 ft 513 kts 323°
2026-05-06 22:06 -18.88154 -45.29287 36159 ft 512 kts 323°
2026-05-06 22:07 -18.82002 -45.33158 36162 ft 513 kts 323°
2026-05-06 22:07 -18.75858 -45.37021 36165 ft 512 kts 323°
2026-05-06 22:08 -18.69760 -45.40852 36166 ft 512 kts 323°
2026-05-06 22:08 -18.63598 -45.44720 36166 ft 512 kts 323°
2026-05-06 22:09 -18.57474 -45.48561 36168 ft 512 kts 323°
2026-05-06 22:09 -18.51350 -45.52398 36169 ft 512 kts 323°
2026-05-06 22:10 -18.45313 -45.56177 36179 ft 510 kts 323°
2026-05-06 22:10 -18.39540 -45.60450 36184 ft 505 kts 316°
2026-05-06 22:11 -18.33919 -45.64844 36185 ft 505 kts 316°
2026-05-06 22:11 -18.28245 -45.69273 36192 ft 504 kts 317°
2026-05-06 22:12 -18.22634 -45.73650 36194 ft 504 kts 317°
2026-05-06 22:12 -18.17009 -45.78032 36198 ft 502 kts 317°
2026-05-06 22:13 -18.11367 -45.82426 36200 ft 504 kts 317°
2026-05-06 22:13 -18.05745 -45.86800 36202 ft 504 kts 317°
2026-05-06 22:14 -18.00130 -45.91164 36203 ft 503 kts 317°
2026-05-06 22:14 -17.94505 -45.95534 36198 ft 503 kts 317°
2026-05-06 22:15 -17.88843 -45.99927 36181 ft 502 kts 317°
2026-05-06 22:15 -17.83256 -46.04260 36170 ft 501 kts 317°
2026-05-06 22:16 -17.77633 -46.08618 36157 ft 503 kts 317°
2026-05-06 22:16 -17.72018 -46.12964 36155 ft 501 kts 317°
2026-05-06 22:17 -17.66365 -46.17337 36149 ft 501 kts 317°
2026-05-06 22:17 -17.60778 -46.21655 36146 ft 501 kts 317°
2026-05-06 22:18 -17.55157 -46.25997 36145 ft 501 kts 317°
2026-05-06 22:18 -17.49541 -46.30331 36143 ft 500 kts 317°
2026-05-06 22:19 -17.43913 -46.34671 36144 ft 501 kts 317°
2026-05-06 22:19 -17.38294 -46.39001 36140 ft 500 kts 317°
2026-05-06 22:20 -17.32682 -46.43322 36143 ft 501 kts 317°
2026-05-06 22:20 -17.27085 -46.47628 36142 ft 500 kts 317°
2026-05-06 22:21 -17.21518 -46.51906 36135 ft 487 kts 317°
2026-05-06 22:21 -17.16055 -46.56104 36146 ft 486 kts 317°
2026-05-06 22:22 -17.10739 -46.60418 36157 ft 481 kts 312°
2026-05-06 22:22 -17.05646 -46.65006 36154 ft 483 kts 313°
2026-05-06 22:23 -17.00598 -46.69503 36148 ft 467 kts 313°
2026-05-06 22:23 -16.95687 -46.73875 36156 ft 463 kts 313°
2026-05-06 22:24 -16.93225 -46.76065 35935 ft 466 kts 313°
2026-05-06 22:24 -16.90762 -46.78256 35423 ft 468 kts 313°
2026-05-06 22:24 -16.88262 -46.80477 34892 ft 469 kts 314°
2026-05-06 22:24 -16.85773 -46.82688 34381 ft 470 kts 314°
2026-05-06 22:25 -16.83295 -46.84889 33868 ft 473 kts 314°
2026-05-06 22:25 -16.80750 -46.87149 33348 ft 478 kts 314°
2026-05-06 22:25 -16.78225 -46.89389 32833 ft 480 kts 314°
2026-05-06 22:25 -16.75681 -46.91646 32307 ft 482 kts 314°
2026-05-06 22:26 -16.73104 -46.93931 31773 ft 483 kts 314°
2026-05-06 22:26 -16.70550 -46.96195 31249 ft 483 kts 314°
2026-05-06 22:26 -16.68013 -46.98443 30724 ft 486 kts 315°
2026-05-06 22:26 -16.65430 -47.00730 30182 ft 483 kts 314°
2026-05-06 22:27 -16.62858 -47.03008 29649 ft 480 kts 315°
2026-05-06 22:27 -16.60336 -47.05240 29127 ft 475 kts 315°
2026-05-06 22:27 -16.57814 -47.07472 28605 ft 471 kts 315°
2026-05-06 22:27 -16.55345 -47.09656 28091 ft 467 kts 315°
2026-05-06 22:28 -16.52871 -47.11843 27576 ft 463 kts 315°
2026-05-06 22:28 -16.50408 -47.14021 27064 ft 458 kts 315°
2026-05-06 22:28 -16.48008 -47.16142 26562 ft 454 kts 316°
2026-05-06 22:28 -16.45599 -47.18270 26061 ft 450 kts 316°
2026-05-06 22:29 -16.43236 -47.20357 25568 ft 447 kts 316°
2026-05-06 22:29 -16.40876 -47.22440 25079 ft 444 kts 316°
2026-05-06 22:29 -16.38496 -47.24527 24589 ft 441 kts 318°
2026-05-06 22:29 -16.36109 -47.26526 24108 ft 439 kts 319°
2026-05-06 22:30 -16.33741 -47.28507 23625 ft 435 kts 319°
2026-05-06 22:30 -16.31396 -47.30468 23144 ft 431 kts 319°
2026-05-06 22:30 -16.29059 -47.32422 22671 ft 429 kts 319°
2026-05-06 22:30 -16.26766 -47.34339 22202 ft 426 kts 319°
2026-05-06 22:31 -16.24475 -47.36253 21735 ft 421 kts 319°
2026-05-06 22:31 -16.22197 -47.38157 21272 ft 416 kts 320°
2026-05-06 22:31 -16.19947 -47.40036 20813 ft 412 kts 320°
2026-05-06 22:31 -16.17702 -47.41911 20355 ft 407 kts 320°
2026-05-06 22:32 -16.15516 -47.43735 19912 ft 404 kts 320°
2026-05-06 22:32 -16.13351 -47.45542 19473 ft 401 kts 321°
2026-05-06 22:32 -16.11167 -47.47363 19028 ft 397 kts 321°
2026-05-06 22:32 -16.09021 -47.49153 18592 ft 393 kts 321°
2026-05-06 22:33 -16.06891 -47.50929 18157 ft 389 kts 321°
2026-05-06 22:33 -16.04806 -47.52667 17736 ft 386 kts 321°
2026-05-06 22:33 -16.02720 -47.54405 17315 ft 381 kts 321°
2026-05-06 22:33 -16.00648 -47.56131 16898 ft 377 kts 321°
2026-05-06 22:34 -15.98613 -47.57826 16485 ft 374 kts 322°
2026-05-06 22:34 -15.96822 -47.59604 16080 ft 372 kts 304°
2026-05-06 22:34 -15.95846 -47.61869 15723 ft 371 kts 283°
2026-05-06 22:34 -15.95706 -47.64490 15251 ft 368 kts 267°
2026-05-06 22:35 -15.95839 -47.67138 14814 ft 365 kts 266°
2026-05-06 22:35 -15.95995 -47.69761 14412 ft 362 kts 266°
2026-05-06 22:35 -15.96157 -47.72356 14011 ft 360 kts 266°
2026-05-06 22:35 -15.96321 -47.74946 13614 ft 356 kts 266°
2026-05-06 22:36 -15.96484 -47.77492 13227 ft 355 kts 266°
2026-05-06 22:36 -15.96648 -47.80048 12839 ft 346 kts 266°
2026-05-06 22:36 -15.96805 -47.82507 12451 ft 338 kts 267°
2026-05-06 22:36 -15.96957 -47.84898 12101 ft 330 kts 267°
2026-05-06 22:37 -15.97106 -47.87245 11742 ft 324 kts 267°
2026-05-06 22:37 -15.97252 -47.89550 11391 ft 317 kts 267°
2026-05-06 22:37 -15.97396 -47.91816 11051 ft 311 kts 268°
2026-05-06 22:37 -15.97536 -47.94024 10726 ft 306 kts 268°
2026-05-06 22:38 -15.97674 -47.96210 10383 ft 301 kts 268°
2026-05-06 22:38 -15.97812 -47.98371 10051 ft 296 kts 268°
2026-05-06 22:38 -15.97949 -48.00510 9690 ft 294 kts 268°
2026-05-06 22:38 -15.98081 -48.02589 9317 ft 291 kts 268°
2026-05-06 22:39 -15.98215 -48.04699 8945 ft 289 kts 268°
2026-05-06 22:39 -15.98347 -48.06773 8585 ft 287 kts 268°
2026-05-06 22:39 -15.98477 -48.08822 8218 ft 285 kts 268°
2026-05-06 22:39 -15.98607 -48.10867 7846 ft 283 kts 268°
2026-05-06 22:40 -15.98734 -48.12880 7493 ft 280 kts 268°
2026-05-06 22:40 -15.98854 -48.14905 7140 ft 277 kts 272°
2026-05-06 22:40 -15.98362 -48.16758 6818 ft 266 kts 308°
2026-05-06 22:40 -15.96997 -48.17981 6303 ft 262 kts 342°
2026-05-06 22:41 -15.93547 -48.18002 5615 ft 239 kts 36°
2026-05-06 22:41 -15.92493 -48.16799 5568 ft 216 kts 58°
2026-05-06 22:41 -15.91711 -48.15549 5519 ft 200 kts 59°
2026-05-06 22:42 -15.91002 -48.14372 5491 ft 182 kts 60°
2026-05-06 22:42 -15.90372 -48.13310 5440 ft 166 kts 60°
2026-05-06 22:42 -15.89773 -48.12286 5450 ft 164 kts 60°
2026-05-06 22:42 -15.89247 -48.11239 5484 ft 166 kts 80°
2026-05-06 22:43 -15.89127 -48.10093 5608 ft 155 kts 85°
2026-05-06 22:43 -15.89041 -48.08972 5614 ft 153 kts 85°
2026-05-06 22:43 -15.88953 -48.07876 5599 ft 153 kts 85°
2026-05-06 22:43 -15.88883 -48.06775 5591 ft 153 kts 86°
2026-05-06 22:44 -15.88815 -48.05683 5556 ft 146 kts 86°
2026-05-06 22:44 -15.88749 -48.04653 5418 ft 143 kts 86°
2026-05-06 22:44 -15.88685 -48.03657 5243 ft 135 kts 86°
2026-05-06 22:44 -15.88623 -48.02689 5094 ft 132 kts 86°
2026-05-06 22:45 -15.88563 -48.01744 4949 ft 133 kts 87°
2026-05-06 22:45 -15.88501 -48.00778 4784 ft 134 kts 87°
2026-05-06 22:45 -15.88440 -47.99817 4616 ft 135 kts 87°
2026-05-06 22:45 -15.88378 -47.98853 4440 ft 136 kts 88°
2026-05-06 22:46 -15.88316 -47.97879 4262 ft 135 kts 88°
2026-05-06 22:46 -15.88253 -47.96903 4086 ft 136 kts 88°
2026-05-06 22:46 -15.88190 -47.95918 3911 ft 136 kts 88°
2026-05-06 22:46 -15.88115 -47.94945 3709 ft 137 kts 86°
2026-05-06 22:47 -15.88044 -47.93960 3561 ft 137 kts 91°
2026-05-06 22:47 -15.88004 -47.93019 3493 ft 113 kts 86°
2026-05-06 22:47 -15.87960 -47.92350 3463 ft 73 kts 86°
2026-05-06 22:47 -15.87932 -47.91975 3450 ft 32 kts 78°
2026-05-06 22:48 -15.87905 -47.91873 3449 ft 11 kts 68°
2026-05-06 22:48 -15.87873 -47.91802 3450 ft 10 kts 62°
2026-05-06 22:48 -15.87841 -47.91741 3451 ft 8 kts 52°
2026-05-06 22:48 -15.87832 -47.91729 3452 ft 0 kts 49°
2026-05-06 22:49 -15.87829 -47.91726 3452 ft 1 kts 47°
2026-05-06 22:50 -15.87815 -47.91711 3453 ft 4 kts 43°
2026-05-06 22:50 -15.87786 -47.91672 3453 ft 9 kts 56°
2026-05-06 22:50 -15.87750 -47.91615 3453 ft 7 kts 53°
2026-05-06 22:50 -15.87721 -47.91576 3454 ft 5 kts 51°
2026-05-06 22:51 -15.87698 -47.91557 3455 ft 2 kts 16°
2026-05-06 22:51 -15.87694 -47.91556 3455 ft 0 kts 13°
2026-05-06 22:51 -15.87678 -47.91553 3457 ft 4 kts
2026-05-06 22:51 -15.87635 -47.91556 3460 ft 7 kts 353°
2026-05-06 22:52 -15.87575 -47.91562 3464 ft 8 kts 355°
2026-05-06 22:52 -15.87527 -47.91565 3467 ft 5 kts 357°
2026-05-06 22:52 -15.87498 -47.91566 3468 ft 2 kts 358°
2026-05-06 22:52 -15.87479 -47.91566 3469 ft 3 kts 358°
2026-05-06 22:53 -15.87448 -47.91568 3471 ft 5 kts 356°
2026-05-06 22:53 -15.87412 -47.91570 3474 ft 4 kts 349°
2026-05-06 22:53 -15.87372 -47.91573 3475 ft 11 kts 359°
2026-05-06 22:53 -15.87281 -47.91579 3477 ft 12 kts 353°
2026-05-06 22:54 -15.87202 -47.91587 3480 ft 10 kts 353°
2026-05-06 22:54 -15.87141 -47.91593 3482 ft 7 kts 359°
2026-05-06 22:54 -15.87090 -47.91596 3483 ft 6 kts 355°
2026-05-06 22:54 -15.87045 -47.91597 3484 ft 5 kts
2026-05-06 22:55 -15.87007 -47.91598 3484 ft 4 kts 354°
2026-05-06 22:55 -15.86973 -47.91601 3485 ft 5 kts 358°
2026-05-06 22:55 -15.86935 -47.91603 3485 ft 5 kts 356°
2026-05-06 22:55 -15.86898 -47.91619 3485 ft 6 kts 305°
2026-05-06 22:56 -15.86894 -47.91665 3485 ft 6 kts 263°
2026-05-06 22:56 -15.86898 -47.91716 3485 ft 7 kts 266°
2026-05-06 22:56 -15.86902 -47.91770 3485 ft 7 kts 265°
2026-05-06 22:56 -15.86905 -47.91801 3485 ft 1 kts 265°
2026-05-06 22:57 -15.86904 -47.91810 3486 ft 0 kts 279°
2026-05-06 22:57 -15.86903 -47.91815 3486 ft 0 kts 286°
2026-05-06 22:57 -15.86902 -47.91816 3486 ft 0 kts 286°
2026-05-06 22:57 -15.86900 -47.91823 3486 ft 1 kts 299°
2026-05-06 22:58 -15.86883 -47.91829 3486 ft 4 kts 359°
2026-05-06 22:58 -15.86860 -47.91831 3485 ft 3 kts 354°
2026-05-06 22:58 -15.86843 -47.91833 3485 ft 0 kts 354°